| time (UTC) | temp F | wind direction | speed knots | gust knots | rain 1hr in | rain 24hr in | rain mn in | humidity % | barometer mb |
| 20260502221148 | 51 | 266 | 0.0 | 6.1 | 0.00 | 0.00 | 0.00 | 39 | 1014.8 |
| 20260502220643 | 51 | 299 | 4.3 | 6.1 | 0.00 | 0.00 | 0.00 | 40 | 1014.8 |
| 20260502220140 | 51 | 6 | 1.7 | 5.2 | 0.00 | 0.00 | 0.00 | 44 | 1014.7 |
| 20260502215637 | 52 | 283 | 3.5 | 5.2 | 0.00 | 0.00 | 0.00 | 41 | 1014.7 |
| 20260502215134 | 52 | 266 | 1.7 | 2.6 | 0.00 | 0.00 | 0.00 | 38 | 1014.7 |
| 20260502214631 | 52 | 337 | 4.3 | 6.1 | 0.00 | 0.00 | 0.00 | 39 | 1014.5 |
| 20260502214127 | 52 | 286 | 0.0 | 5.2 | 0.00 | 0.00 | 0.00 | 40 | 1014.7 |
| 20260502213625 | 52 | 335 | 4.3 | 6.1 | 0.00 | 0.00 | 0.00 | 37 | 1014.6 |
| 20260502213122 | 52 | 298 | 2.6 | 3.5 | 0.00 | 0.00 | 0.00 | 41 | 1014.6 |
| 20260502212621 | 52 | 326 | 1.7 | 5.2 | 0.00 | 0.00 | 0.00 | 39 | 1014.6 |
| 20260502212119 | 52 | 28 | 0.0 | 0.9 | 0.00 | 0.00 | 0.00 | 37 | 1014.6 |
| 20260502211614 | 52 | 303 | 1.7 | 1.7 | 0.00 | 0.00 | 0.00 | 38 | 1014.7 |
| 20260502211111 | 52 | 302 | 2.6 | 2.6 | 0.00 | 0.00 | 0.00 | 38 | 1014.8 |
| 20260502210609 | 52 | 260 | 1.7 | 2.6 | 0.00 | 0.00 | 0.00 | 40 | 1014.6 |
| 20260502210105 | 52 | 307 | 3.5 | 5.2 | 0.00 | 0.00 | 0.00 | 37 | 1014.9 |
| 20260502205602 | 52 | 259 | 5.2 | 7.8 | 0.00 | 0.00 | 0.00 | 38 | 1014.6 |
| 20260502205059 | 53 | 305 | 1.7 | 3.5 | 0.00 | 0.00 | 0.00 | 37 | 1014.6 |
| 20260502204555 | 53 | 220 | 1.7 | 3.5 | 0.00 | 0.00 | 0.00 | 39 | 1014.7 |
| 20260502204053 | 52 | 211 | 1.7 | 5.2 | 0.00 | 0.00 | 0.00 | 41 | 1014.7 |
| 20260502203550 | 52 | 233 | 4.3 | 6.1 | 0.00 | 0.00 | 0.00 | 39 | 1014.9 |
| 20260502203048 | 52 | 226 | 2.6 | 3.5 | 0.00 | 0.00 | 0.00 | 42 | 1014.5 |
| 20260502202543 | 52 | 281 | 2.6 | 3.5 | 0.00 | 0.00 | 0.00 | 38 | 1014.7 |
| 20260502202042 | 52 | 306 | 1.7 | 2.6 | 0.00 | 0.00 | 0.00 | 40 | 1014.7 |
| 20260502201537 | 52 | 250 | 4.3 | 7.8 | 0.00 | 0.00 | 0.00 | 42 | 1014.8 |
| 20260502201034 | 52 | 254 | 2.6 | 12.2 | 0.00 | 0.00 | 0.00 | 40 | 1015.0 |
| 20260502200530 | 52 | 228 | 3.5 | 6.1 | 0.00 | 0.00 | 0.00 | 39 | 1014.9 |
| 20260502200028 | 53 | 249 | 1.7 | 7.0 | 0.00 | 0.00 | 0.00 | 39 | 1015.0 |
| 20260502195525 | 53 | 326 | 3.5 | 9.6 | 0.00 | 0.00 | 0.00 | 40 | 1015.1 |
| 20260502195021 | 52 | 305 | 3.5 | 3.5 | 0.00 | 0.00 | 0.00 | 40 | 1014.9 |
| 20260502194518 | 53 | 236 | 3.5 | 5.2 | 0.00 | 0.00 | 0.00 | 37 | 1015.0 |
| 20260502194014 | 53 | 252 | 1.7 | 6.1 | 0.00 | 0.00 | 0.00 | 37 | 1015.1 |
| 20260502193512 | 54 | 275 | 4.3 | 7.0 | 0.00 | 0.00 | 0.00 | 42 | 1015.0 |
| 20260502193008 | 54 | 318 | 1.7 | 3.5 | 0.00 | 0.00 | 0.00 | 42 | 1015.2 |
| 20260502192504 | 53 | 218 | 1.7 | 2.6 | 0.00 | 0.00 | 0.00 | 41 | 1015.1 |
| 20260502192001 | 52 | 185 | 2.6 | 3.5 | 0.00 | 0.00 | 0.00 | 38 | 1015.3 |
| 20260502191459 | 53 | 271 | 1.7 | 6.1 | 0.00 | 0.00 | 0.00 | 37 | 1015.4 |
| 20260502190956 | 53 | 307 | 7.8 | 11.3 | 0.00 | 0.00 | 0.00 | 38 | 1015.3 |
| 20260502190453 | 55 | 250 | 3.5 | 8.7 | 0.00 | 0.00 | 0.00 | 34 | 1015.4 |
| 20260502185949 | 55 | 158 | 1.7 | 2.6 | 0.00 | 0.00 | 0.00 | 36 | 1015.3 |
| 20260502185445 | 52 | 265 | 1.7 | 5.2 | 0.00 | 0.00 | 0.00 | 41 | 1015.6 |
| 20260502184942 | 53 | 217 | 0.9 | 3.5 | 0.00 | 0.00 | 0.00 | 37 | 1015.5 |
| 20260502184437 | 53 | 195 | 0.0 | 1.7 | 0.00 | 0.00 | 0.00 | 43 | 1015.7 |
| 20260502183934 | 52 | 302 | 0.9 | 1.7 | 0.00 | 0.00 | 0.00 | 44 | 1015.6 |
| 20260502183430 | 52 | 82 | 3.5 | 5.2 | 0.00 | 0.00 | 0.00 | 41 | 1015.8 |
| 20260502182926 | 52 | 269 | 2.6 | 5.2 | 0.00 | 0.00 | 0.00 | 43 | 1016.0 |
| 20260502182421 | 52 | 184 | 5.2 | 7.0 | 0.00 | 0.00 | 0.00 | 39 | 1015.9 |
| 20260502181918 | 53 | 307 | 8.7 | 13.0 | 0.00 | 0.00 | 0.00 | 38 | 1015.7 |
| 20260502181417 | 51 | 252 | 0.9 | 2.6 | 0.00 | 0.00 | 0.00 | 49 | 1015.8 |
| 20260502180914 | 51 | 322 | 2.6 | 5.2 | 0.00 | 0.00 | 0.00 | 45 | 1016.1 |
| 20260502180411 | 51 | 259 | 5.2 | 7.8 | 0.00 | 0.00 | 0.00 | 43 | 1016.3 |
| 20260502170330 | 51 | 283 | 0.9 | 2.6 | 0.00 | 0.00 | 0.00 | 42 | 1016.0 |
| 20260502164318 | 51 | 290 | 2.6 | 7.8 | 0.00 | 0.00 | 0.00 | 45 | 1016.5 |
| 20260502163813 | 51 | 293 | 2.6 | 7.0 | 0.00 | 0.00 | 0.00 | 42 | 1016.4 |
| 20260502163310 | 51 | 308 | 3.5 | 7.0 | 0.00 | 0.00 | 0.00 | 42 | 1016.3 |
| 20260502162808 | 50 | 286 | 1.7 | 8.7 | 0.00 | 0.00 | 0.00 | 43 | 1016.5 |
| 20260502162305 | 51 | 332 | 3.5 | 7.8 | 0.00 | 0.00 | 0.00 | 45 | 1016.6 |
| 20260502161800 | 51 | 242 | 1.7 | 6.1 | 0.00 | 0.00 | 0.00 | 47 | 1016.5 |
| 20260502161257 | 51 | 285 | 3.5 | 5.2 | 0.00 | 0.00 | 0.00 | 45 | 1016.5 |
| 20260502160755 | 52 | 280 | 2.6 | 8.7 | 0.00 | 0.00 | 0.00 | 43 | 1016.5 |
| 20260502160254 | 51 | 261 | 4.3 | 6.1 | 0.00 | 0.00 | 0.00 | 41 | 1016.6 |
| 20260502152223 | 52 | 117 | 0.9 | 6.1 | 0.00 | 0.00 | 0.00 | 46 | 1016.5 |
| 20260502151721 | 50 | 236 | 0.0 | 3.5 | 0.00 | 0.00 | 0.00 | 50 | 1016.8 |
| 20260502151218 | 53 | 313 | 4.3 | 12.2 | 0.00 | 0.00 | 0.00 | 43 | 1016.5 |
| 20260502150715 | 52 | 296 | 1.7 | 3.5 | 0.00 | 0.00 | 0.00 | 43 | 1016.6 |
| 20260502150211 | 51 | 235 | 0.9 | 2.6 | 0.00 | 0.00 | 0.00 | 50 | 1016.6 |
| 20260502130600 | 48 | 329 | 1.7 | 6.1 | 0.00 | 0.00 | 0.00 | 60 | 1016.6 |
| 20260502123543 | 47 | 236 | 2.6 | 6.1 | 0.00 | 0.00 | 0.00 | 60 | 1016.8 |
| 20260502123039 | 46 | 268 | 3.5 | 7.0 | 0.00 | 0.00 | 0.00 | 63 | 1016.7 |
| 20260502122536 | 45 | 327 | 0.0 | 1.7 | 0.00 | 0.00 | 0.00 | 64 | 1016.6 |
| 20260502122034 | 45 | 280 | 0.9 | 1.7 | 0.00 | 0.00 | 0.00 | 67 | 1016.5 |
| 20260502121531 | 44 | 276 | 0.9 | 2.6 | 0.00 | 0.00 | 0.00 | 68 | 1016.6 |
| 20260502121028 | 44 | 255 | 0.9 | 0.9 | 0.00 | 0.00 | 0.00 | 67 | 1016.5 |
| 20260502120524 | 44 | 264 | 2.6 | 3.5 | 0.00 | 0.00 | 0.00 | 68 | 1016.7 |
| 20260502115519 | 44 | 218 | 2.6 | 3.5 | 0.00 | 0.00 | 0.00 | 67 | 1016.9 |
| 20260502115015 | 43 | 319 | 4.3 | 6.1 | 0.00 | 0.00 | 0.00 | 71 | 1016.8 |
| 20260502114512 | 43 | 89 | 1.7 | 2.6 | 0.00 | 0.00 | 0.00 | 77 | 1016.7 |
| 20260502114009 | 42 | 242 | 0.0 | 0.9 | 0.00 | 0.00 | 0.00 | 77 | 1016.8 |
| 20260502113506 | 42 | 242 | 0.0 | 0.9 | 0.00 | 0.00 | 0.00 | 79 | 1016.8 |
| 20260502113005 | 41 | 313 | 0.9 | 0.9 | 0.00 | 0.00 | 0.00 | 77 | 1016.8 |
| 20260502112502 | 40 | 312 | 1.7 | 1.7 | 0.00 | 0.00 | 0.00 | 79 | 1016.8 |
| 20260502111959 | 40 | 310 | 1.7 | 2.6 | 0.00 | 0.00 | 0.00 | 80 | 1016.9 |
| 20260502111456 | 40 | 321 | 0.9 | 1.7 | 0.00 | 0.00 | 0.00 | 80 | 1017.0 |
| 20260502110954 | 40 | 321 | 0.9 | 1.7 | 0.00 | 0.00 | 0.00 | 82 | 1016.9 |
| 20260502110451 | 39 | 320 | 0.0 | 0.0 | 0.00 | 0.00 | 0.00 | 80 | 1016.9 |
| 20260502105948 | 39 | 320 | 0.0 | 0.0 | 0.00 | 0.00 | 0.00 | 81 | 1016.8 |
| 20260502105446 | 39 | 320 | 0.0 | 0.0 | 0.00 | 0.00 | 0.00 | 83 | 1016.8 |
| 20260502104944 | 39 | 321 | 0.0 | 0.9 | 0.00 | 0.00 | 0.00 | 80 | 1016.9 |
| 20260502104440 | 39 | 321 | 0.0 | 0.9 | 0.00 | 0.00 | 0.00 | 79 | 1016.7 |
| 20260502103938 | 40 | 309 | 0.0 | 0.0 | 0.00 | 0.00 | 0.00 | 79 | 1016.9 |
| 20260502103436 | 40 | 308 | 1.7 | 2.6 | 0.00 | 0.00 | 0.00 | 79 | 1016.9 |
| 20260502102932 | 39 | 334 | 0.9 | 0.9 | 0.00 | 0.00 | 0.00 | 79 | 1017.0 |
| 20260502102429 | 39 | 307 | 0.9 | 0.9 | 0.00 | 0.00 | 0.00 | 81 | 1016.9 |
| 20260502101926 | 39 | 309 | 0.0 | 1.7 | 0.00 | 0.00 | 0.00 | 80 | 1017.2 |
| 20260502101425 | 40 | 21 | 0.0 | 0.9 | 0.00 | 0.00 | 0.00 | 78 | 1017.2 |
| 20260502100922 | 40 | 21 | 0.0 | 0.9 | 0.00 | 0.00 | 0.00 | 78 | 1017.3 |
| 20260502100422 | 40 | 19 | 0.9 | 1.7 | 0.00 | 0.00 | 0.00 | 79 | 1017.1 |
| 20260502091355 | 40 | 207 | 0.0 | 1.7 | 0.00 | 0.00 | 0.00 | 78 | 1016.9 |
| 20260502090853 | 40 | 202 | 0.0 | 0.9 | 0.00 | 0.00 | 0.00 | 78 | 1017.0 |
| 20260502090349 | 40 | 42 | 0.0 | 1.7 | 0.00 | 0.00 | 0.00 | 77 | 1016.8 |
| 20260502071244 | 41 | 249 | 0.9 | 0.9 | 0.00 | 0.00 | 0.00 | 76 | 1016.7 |
| 20260502070743 | 42 | 250 | 0.9 | 0.9 | 0.00 | 0.00 | 0.00 | 75 | 1016.8 |
| 20260502070240 | 42 | 252 | 0.9 | 2.6 | 0.00 | 0.00 | 0.00 | 76 | 1016.7 |
| 20260502065739 | 42 | 315 | 0.9 | 2.6 | 0.00 | 0.00 | 0.00 | 74 | 1016.5 |
| 20260502065236 | 43 | 281 | 0.0 | 0.0 | 0.00 | 0.00 | 0.00 | 73 | 1016.7 |
| 20260502064734 | 43 | 287 | 1.7 | 2.6 | 0.00 | 0.00 | 0.00 | 71 | 1016.7 |
| 20260502064232 | 43 | 223 | 0.9 | 5.2 | 0.00 | 0.00 | 0.00 | 70 | 1016.8 |
| 20260502063729 | 43 | 235 | 0.0 | 0.9 | 0.00 | 0.00 | 0.00 | 74 | 1016.6 |
| 20260502063227 | 43 | 248 | 0.9 | 2.6 | 0.00 | 0.00 | 0.00 | 73 | 1016.7 |
| 20260502062724 | 43 | 255 | 1.7 | 3.5 | 0.00 | 0.00 | 0.00 | 72 | 1016.8 |
| 20260502062221 | 44 | 268 | 0.9 | 2.6 | 0.00 | 0.00 | 0.00 | 73 | 1016.7 |
| 20260502061720 | 44 | 238 | 1.7 | 5.2 | 0.00 | 0.00 | 0.00 | 72 | 1016.7 |
| 20260502061218 | 44 | 277 | 1.7 | 2.6 | 0.00 | 0.00 | 0.00 | 72 | 1016.9 |
| 20260502060718 | 44 | 270 | 0.9 | 2.6 | 0.00 | 0.00 | 0.00 | 71 | 1016.9 |
| 20260502060214 | 44 | 241 | 3.5 | 3.5 | 0.00 | 0.00 | 0.00 | 70 | 1016.8 |
| 20260502055712 | 45 | 233 | 1.7 | 2.6 | 0.00 | 0.00 | 0.00 | 71 | 1016.9 |
| 20260502055210 | 45 | 305 | 1.7 | 3.5 | 0.00 | 0.00 | 0.00 | 72 | 1016.9 |
| 20260502054709 | 45 | 265 | 0.9 | 3.5 | 0.00 | 0.00 | 0.00 | 72 | 1016.8 |
| 20260502054206 | 46 | 244 | 1.7 | 7.0 | 0.00 | 0.00 | 0.00 | 69 | 1016.8 |
| 20260502053703 | 46 | 234 | 4.3 | 7.8 | 0.00 | 0.00 | 0.00 | 71 | 1016.8 |
| 20260502053200 | 46 | 307 | 3.5 | 6.1 | 0.00 | 0.00 | 0.00 | 71 | 1016.9 |
| 20260502052658 | 46 | 306 | 5.2 | 7.0 | 0.00 | 0.00 | 0.00 | 71 | 1016.7 |
| 20260502052156 | 47 | 244 | 3.5 | 3.5 | 0.00 | 0.00 | 0.00 | 70 | 1016.7 |
| 20260502051654 | 47 | 294 | 2.6 | 7.0 | 0.00 | 0.00 | 0.00 | 70 | 1016.6 |
| 20260502051152 | 47 | 328 | 2.6 | 5.2 | 0.00 | 0.00 | 0.00 | 70 | 1016.7 |
| 20260502050648 | 47 | 301 | 3.5 | 5.2 | 0.00 | 0.00 | 0.00 | 71 | 1016.7 |
| 20260502050145 | 47 | 294 | 1.7 | 2.6 | 0.00 | 0.00 | 0.00 | 71 | 1016.5 |
| 20260502045641 | 47 | 254 | 0.9 | 1.7 | 0.00 | 0.00 | 0.00 | 70 | 1016.7 |
| 20260502045139 | 47 | 305 | 1.7 | 3.5 | 0.00 | 0.00 | 0.00 | 70 | 1016.5 |
| 20260502044635 | 48 | 259 | 0.9 | 0.9 | 0.00 | 0.00 | 0.00 | 72 | 1016.4 |
| 20260502044131 | 48 | 296 | 1.7 | 2.6 | 0.00 | 0.00 | 0.00 | 71 | 1016.5 |
| 20260502043630 | 48 | 339 | 3.5 | 5.2 | 0.00 | 0.00 | 0.00 | 70 | 1016.3 |
| 20260502043127 | 48 | 312 | 3.5 | 5.2 | 0.00 | 0.00 | 0.00 | 71 | 1016.5 |
| 20260502042626 | 48 | 327 | 3.5 | 5.2 | 0.00 | 0.00 | 0.00 | 70 | 1016.4 |
| 20260502042123 | 48 | 255 | 1.7 | 5.2 | 0.00 | 0.00 | 0.00 | 69 | 1016.5 |
| 20260502041621 | 48 | 256 | 0.9 | 5.2 | 0.00 | 0.00 | 0.00 | 70 | 1016.5 |
| 20260502041118 | 48 | 221 | 3.5 | 5.2 | 0.00 | 0.00 | 0.00 | 73 | 1016.3 |
| 20260502040615 | 48 | 290 | 1.7 | 2.6 | 0.00 | 0.00 | 0.00 | 72 | 1016.0 |
| 20260502040112 | 48 | 245 | 0.9 | 1.7 | 0.00 | 0.00 | 0.00 | 74 | 1016.3 |
| 20260502035608 | 48 | 296 | 1.7 | 2.6 | 0.00 | 0.00 | 0.00 | 73 | 1016.1 |
| 20260502035105 | 48 | 250 | 0.9 | 2.6 | 0.00 | 0.00 | 0.00 | 72 | 1016.1 |
| 20260502034603 | 49 | 288 | 1.7 | 3.5 | 0.00 | 0.00 | 0.00 | 72 | 1016.1 |
| 20260502034101 | 48 | 251 | 3.5 | 6.1 | 0.00 | 0.00 | 0.00 | 72 | 1015.8 |
| 20260502033559 | 48 | 311 | 4.3 | 5.2 | 0.00 | 0.00 | 0.00 | 71 | 1015.8 |
| 20260502033056 | 48 | 264 | 1.7 | 2.6 | 0.00 | 0.00 | 0.00 | 71 | 1015.8 |
| 20260502032552 | 48 | 329 | 0.9 | 1.7 | 0.00 | 0.00 | 0.00 | 69 | 1015.8 |
| 20260502032049 | 49 | 330 | 0.0 | 1.7 | 0.00 | 0.00 | 0.00 | 69 | 1015.8 |
| 20260502031547 | 49 | 122 | 0.0 | 0.0 | 0.00 | 0.00 | 0.00 | 69 | 1015.9 |
| 20260502031044 | 49 | 84 | 1.7 | 2.6 | 0.00 | 0.00 | 0.00 | 69 | 1015.6 |
| 20260502030543 | 49 | 205 | 0.0 | 3.5 | 0.00 | 0.00 | 0.00 | 68 | 1015.7 |
| 20260502030040 | 49 | 154 | 0.9 | 1.7 | 0.00 | 0.00 | 0.00 | 68 | 1015.6 |
| 20260502025537 | 49 | 295 | 1.7 | 1.7 | 0.00 | 0.00 | 0.00 | 69 | 1015.8 |
| 20260502025036 | 49 | 257 | 3.5 | 9.6 | 0.00 | 0.00 | 0.00 | 69 | 1015.6 |
| 20260502024533 | 49 | 122 | 0.0 | 3.5 | 0.00 | 0.00 | 0.00 | 69 | 1015.6 |
| 20260502024031 | 49 | 274 | 0.9 | 2.6 | 0.00 | 0.00 | 0.00 | 71 | 1015.7 |
| 20260502023528 | 49 | 273 | 0.9 | 1.7 | 0.00 | 0.00 | 0.00 | 71 | 1015.8 |
| 20260502023025 | 49 | 259 | 0.0 | 0.9 | 0.00 | 0.00 | 0.00 | 70 | 1015.6 |
| 20260502022522 | 49 | 310 | 0.0 | 3.5 | 0.00 | 0.00 | 0.00 | 69 | 1015.7 |
| 20260502022020 | 49 | 272 | 3.5 | 5.2 | 0.00 | 0.00 | 0.00 | 68 | 1015.7 |
| 20260502021517 | 49 | 244 | 0.9 | 3.5 | 0.00 | 0.00 | 0.00 | 68 | 1015.5 |
| 20260502021014 | 49 | 262 | 3.5 | 6.1 | 0.00 | 0.00 | 0.00 | 68 | 1015.8 |
| 20260502020512 | 49 | 317 | 2.6 | 5.2 | 0.00 | 0.00 | 0.00 | 68 | 1015.5 |
| 20260502020008 | 49 | 233 | 0.9 | 5.2 | 0.00 | 0.00 | 0.00 | 69 | 1015.5 |
| 20260502015506 | 49 | 265 | 1.7 | 1.7 | 0.00 | 0.00 | 0.00 | 68 | 1015.6 |
| 20260502015002 | 49 | 295 | 1.7 | 2.6 | 0.00 | 0.00 | 0.00 | 66 | 1015.5 |
| 20260502014459 | 50 | 285 | 0.9 | 0.9 | 0.00 | 0.00 | 0.00 | 67 | 1015.6 |
| 20260502013956 | 50 | 289 | 1.7 | 6.1 | 0.00 | 0.00 | 0.00 | 66 | 1015.6 |
| 20260502013451 | 50 | 247 | 0.9 | 5.2 | 0.00 | 0.00 | 0.00 | 67 | 1015.6 |
| 20260502012948 | 50 | 261 | 4.3 | 6.1 | 0.00 | 0.00 | 0.00 | 67 | 1015.5 |
| 20260502012446 | 50 | 239 | 1.7 | 5.2 | 0.00 | 0.00 | 0.00 | 67 | 1015.2 |
| 20260502011943 | 51 | 284 | 3.5 | 6.1 | 0.00 | 0.00 | 0.00 | 68 | 1015.0 |
| 20260502011439 | 51 | 294 | 3.5 | 11.3 | 0.00 | 0.00 | 0.00 | 66 | 1015.6 |
| 20260502010936 | 52 | 264 | 3.5 | 7.0 | 0.00 | 0.00 | 0.00 | 65 | 1015.1 |
| 20260502010433 | 52 | 257 | 2.6 | 5.2 | 0.00 | 0.00 | 0.00 | 66 | 1014.9 |
| 20260502005929 | 52 | 298 | 5.2 | 7.0 | 0.00 | 0.00 | 0.00 | 66 | 1014.9 |
| 20260502005427 | 52 | 272 | 7.8 | 13.9 | 0.00 | 0.00 | 0.00 | 67 | 1014.7 |
| 20260502004925 | 52 | 242 | 6.1 | 11.3 | 0.00 | 0.00 | 0.00 | 67 | 1014.5 |
| 20260502004420 | 52 | 140 | 1.7 | 2.6 | 0.00 | 0.00 | 0.00 | 67 | 1014.3 |
| 20260502003918 | 53 | 240 | 4.3 | 6.1 | 0.00 | 0.00 | 0.00 | 67 | 1014.0 |
| 20260502003415 | 53 | 234 | 0.0 | 0.9 | 0.00 | 0.00 | 0.00 | 65 | 1013.7 |
| 20260502002911 | 53 | 247 | 0.0 | 0.9 | 0.00 | 0.00 | 0.00 | 64 | 1013.7 |
| 20260502002409 | 53 | 311 | 4.3 | 7.0 | 0.00 | 0.00 | 0.00 | 63 | 1013.7 |
| 20260502001906 | 54 | 306 | 3.5 | 6.1 | 0.00 | 0.00 | 0.00 | 61 | 1013.3 |
| 20260502001404 | 54 | 229 | 5.2 | 7.0 | 0.00 | 0.00 | 0.00 | 61 | 1013.4 |
| 20260502000901 | 54 | 165 | 0.9 | 1.7 | 0.00 | 0.00 | 0.00 | 60 | 1013.3 |
| 20260502000402 | 54 | 320 | 2.6 | 6.1 | 0.00 | 0.00 | 0.00 | 59 | 1013.0 |
| 20260501235850 | 54 | 244 | 0.9 | 3.5 | 0.00 | 0.00 | 0.00 | 59 | 1012.9 |
| 20260501235345 | 55 | 222 | 0.9 | 5.2 | 0.00 | 0.00 | 0.00 | 56 | 1013.0 |
| 20260501234841 | 55 | 198 | 2.6 | 5.2 | 0.00 | 0.00 | 0.00 | 55 | 1012.8 |
| 20260501234338 | 56 | 257 | 2.6 | 11.3 | 0.00 | 0.00 | 0.00 | 54 | 1012.8 |
| 20260501233837 | 56 | 209 | 0.0 | 2.6 | 0.00 | 0.00 | 0.00 | 52 | 1012.6 |
| 20260501233334 | 57 | 92 | 1.7 | 7.0 | 0.00 | 0.00 | 0.00 | 50 | 1012.6 |
| 20260501232829 | 57 | 101 | 0.0 | 11.3 | 0.00 | 0.00 | 0.00 | 47 | 1012.7 |
| 20260501232327 | 58 | 304 | 2.6 | 7.0 | 0.00 | 0.00 | 0.00 | 47 | 1012.5 |
| 20260501231824 | 58 | 327 | 3.5 | 6.1 | 0.00 | 0.00 | 0.00 | 45 | 1012.4 |
| 20260501231322 | 59 | 296 | 9.6 | 11.3 | 0.00 | 0.00 | 0.00 | 43 | 1012.3 |
| 20260501230820 | 59 | 238 | 2.6 | 3.5 | 0.00 | 0.00 | 0.00 | 42 | 1012.1 |
| 20260501230319 | 60 | 267 | 5.2 | 8.7 | 0.00 | 0.00 | 0.00 | 39 | 1012.2 |
| 20260501225816 | 60 | 304 | 2.6 | 5.2 | 0.00 | 0.00 | 0.00 | 39 | 1012.0 |
| 20260501225314 | 60 | 310 | 0.0 | 5.2 | 0.00 | 0.00 | 0.00 | 38 | 1011.8 |
| 20260501224809 | 61 | 284 | 1.7 | 7.8 | 0.00 | 0.00 | 0.00 | 38 | 1011.8 |
| 20260501224307 | 61 | 265 | 3.5 | 5.2 | 0.00 | 0.00 | 0.00 | 38 | 1011.9 |
| 20260501223803 | 62 | 235 | 0.9 | 3.5 | 0.00 | 0.00 | 0.00 | 39 | 1011.9 |
| 20260501223259 | 62 | 302 | 4.3 | 7.8 | 0.00 | 0.00 | 0.00 | 33 | 1011.9 |
| 20260501222755 | 63 | 301 | 7.0 | 8.7 | 0.00 | 0.00 | 0.00 | 33 | 1011.6 |
| 20260501222253 | 63 | 196 | 1.7 | 5.2 | 0.00 | 0.00 | 0.00 | 36 | 1011.6 |
| 20260501221749 | 63 | 167 | 3.5 | 11.3 | 0.00 | 0.00 | 0.00 | 37 | 1011.6 |
| 20260501221247 | 63 | 245 | 3.5 | 5.2 | 0.00 | 0.00 | 0.00 | 32 | 1011.4 |